owner,sensor,date,latitude,longitude,vertical_datum,direction_of_sea_water_velocity,sea_water_speed,upward_sea_water_velocity,qcFlag 
ADCP,ioos:station:wmo:42875:1,2015-10-05T14:28:00Z,28.1540,-89.8360,57.1,60.0,53.1,-7.4,'1111122,1111122,1111122' 
ADCP,ioos:station:wmo:42875:1,2015-10-05T15:28:00Z,28.1540,-89.8360,57.1,64.0,66.6,-8.2,'1111122,1111122,1111122' 
ADCP,ioos:station:wmo:42875:1,2015-10-05T17:28:00Z,28.1540,-89.8360,57.1,54.0,74.2,-8.7,'1111122,1111122,1111122' 
ADCP,ioos:station:wmo:42875:1,2015-10-05T18:28:00Z,28.1540,-89.8360,57.1,57.0,89.6,-8.0,'1111122,1111122,1111122' 
ADCP,ioos:station:wmo:42875:1,2015-10-05T19:28:00Z,28.1540,-89.8360,57.1,61.0,72.4,-8.5,'1111122,1111122,1111122' 
ADCP,ioos:station:wmo:42875:1,2015-10-05T20:28:00Z,28.1540,-89.8360,57.1,60.0,97.9,-4.1,'1111122,1111122,1111122' 
ADCP,ioos:station:wmo:42875:1,2015-10-05T21:28:00Z,28.1540,-89.8360,57.1,58.0,103.0,-3.0,'1111122,1111122,1111122' 
ADCP,ioos:station:wmo:42875:1,2015-10-05T22:28:00Z,28.1540,-89.8360,57.1,56.0,102.3,-4.8,'1111122,1111122,1111122' 
ADCP,ioos:station:wmo:42875:1,2015-10-05T23:28:00Z,28.1540,-89.8360,57.1,63.0,99.6,-4.9,'1111122,1111122,1111122' 
ADCP,ioos:station:wmo:42875:1,2015-10-06T00:28:00Z,28.1540,-89.8360,57.1,64.0,97.8,-4.2,'1111122,1111122,1111122' 
ADCP,ioos:station:wmo:42875:1,2015-10-06T01:28:00Z,28.1540,-89.8360,57.1,66.0,97.6,-6.0,'1111122,1111122,1111122' 
ADCP,ioos:station:wmo:42875:1,2015-10-06T03:28:00Z,28.1540,-89.8360,57.1,60.0,80.9,-1.0,'1111122,1111122,1111122' 
ADCP,ioos:station:wmo:42875:1,2015-10-06T04:28:00Z,28.1540,-89.8360,57.1,59.0,80.1,3.0,'1111122,1111122,1111122' 
ADCP,ioos:station:wmo:42875:1,2015-10-06T05:28:00Z,28.1540,-89.8360,57.1,62.0,70.6,3.6,'1111122,1111122,1111122' 
ADCP,ioos:station:wmo:42875:1,2015-10-06T06:28:00Z,28.1540,-89.8360,57.1,63.0,61.2,0.5,'1111122,1111122,1111122' 
ADCP,ioos:station:wmo:42875:1,2015-10-06T07:28:00Z,28.1540,-89.8360,57.1,71.0,71.5,1.2,'1111122,1111122,1111122' 
ADCP,ioos:station:wmo:42875:1,2015-10-06T07:38:00Z,28.1540,-89.8360,57.1,70.0,68.5,0.8,'1111122,1111122,1111122' 
ADCP,ioos:station:wmo:42875:1,2015-10-06T10:28:00Z,28.1540,-89.8360,57.1,76.0,78.9,0.1,'1111122,1111122,1111122' 
ADCP,ioos:station:wmo:42875:1,2015-10-06T11:28:00Z,28.1540,-89.8360,57.1,80.0,86.7,-4.1,'1111122,1111122,1111122' 
ADCP,ioos:station:wmo:42875:1,2015-10-06T12:28:00Z,28.1540,-89.8360,57.1,75.0,88.0,1.1,'1111122,1111122,1111122' 
ADCP,ioos:station:wmo:42875:1,2015-10-06T14:28:00Z,28.1540,-89.8360,57.1,67.0,76.9,-5.1,'1111122,1111122,1111122' 
ADCP,ioos:station:wmo:42875:1,2015-10-06T15:28:00Z,28.1540,-89.8360,57.1,65.0,83.7,-8.2,'1111122,1111122,1111122' 
ADCP,ioos:station:wmo:42875:1,2015-10-06T16:28:00Z,28.1540,-89.8360,57.1,67.0,88.0,-8.7,'1111122,1111122,1111122' 
ADCP,ioos:station:wmo:42875:1,2015-10-06T17:28:00Z,28.1540,-89.8360,57.1,68.0,86.6,-7.0,'1111122,1111122,1111122' 
ADCP,ioos:station:wmo:42875:1,2015-10-06T18:28:00Z,28.1540,-89.8360,57.1,66.0,95.2,-6.7,'1111122,1111122,1111122' 
ADCP,ioos:station:wmo:42875:1,2015-10-06T19:28:00Z,28.1540,-89.8360,57.1,65.0,94.8,-4.9,'1111122,1111122,1111122' 
ADCP,ioos:station:wmo:42875:1,2015-10-06T20:28:00Z,28.1540,-89.8360,57.1,68.0,93.9,-3.4,'1111122,1111122,1111122' 
ADCP,ioos:station:wmo:42875:1,2015-10-06T21:28:00Z,28.1540,-89.8360,57.1,64.0,108.0,-6.2,'1111122,1111122,1111122' 
ADCP,ioos:station:wmo:42875:1,2015-10-06T22:28:00Z,28.1540,-89.8360,57.1,65.0,97.2,-5.6,'1111122,1111122,1111122' 
ADCP,ioos:station:wmo:42875:1,2015-10-06T23:28:00Z,28.1540,-89.8360,57.1,66.0,101.5,-5.3,'1111122,1111122,1111122' 
ADCP,ioos:station:wmo:42875:1,2015-10-07T00:28:00Z,28.1540,-89.8360,57.1,66.0,88.9,-4.6,'1111122,1111122,1111122' 
ADCP,ioos:station:wmo:42875:1,2015-10-07T01:28:00Z,28.1540,-89.8360,57.1,67.0,95.2,-5.3,'1111122,1111122,1111122' 
ADCP,ioos:station:wmo:42875:1,2015-10-07T02:18:00Z,28.1540,-89.8360,57.1,66.0,90.3,-3.6,'1111122,1111122,1111122' 
ADCP,ioos:station:wmo:42875:1,2015-10-07T03:28:00Z,28.1540,-89.8360,57.1,67.0,95.1,-4.2,'1111122,1111122,1111122' 
ADCP,ioos:station:wmo:42875:1,2015-10-07T04:28:00Z,28.1540,-89.8360,57.1,70.0,95.6,-6.7,'1111122,1111122,1111122' 
ADCP,ioos:station:wmo:42875:1,2015-10-07T05:28:00Z,28.1540,-89.8360,57.1,67.0,97.7,-4.4,'1111122,1111122,1111122' 
ADCP,ioos:station:wmo:42875:1,2015-10-07T06:28:00Z,28.1540,-89.8360,57.1,64.0,89.2,-2.4,'1111122,1111122,1111122' 
ADCP,ioos:station:wmo:42875:1,2015-10-07T07:28:00Z,28.1540,-89.8360,57.1,68.0,97.9,-3.5,'1111122,1111122,1111122' 
ADCP,ioos:station:wmo:42875:1,2015-10-07T07:48:00Z,28.1540,-89.8360,57.1,66.0,98.8,-3.2,'1111122,1111122,1111122' 
ADCP,ioos:station:wmo:42875:1,2015-10-07T10:28:00Z,28.1540,-89.8360,57.1,65.0,100.9,-3.5,'1111122,1111122,1111122' 
ADCP,ioos:station:wmo:42875:1,2015-10-07T11:28:00Z,28.1540,-89.8360,57.1,68.0,99.3,-3.1,'1111122,1111122,1111122' 
ADCP,ioos:station:wmo:42875:1,2015-10-07T12:28:00Z,28.1540,-89.8360,57.1,68.0,98.2,-4.4,'1111122,1111122,1111122' 
ADCP,ioos:station:wmo:42875:1,2015-10-07T13:28:00Z,28.1540,-89.8360,57.1,68.0,99.5,-7.6,'1111122,1111122,1111122' 
ADCP,ioos:station:wmo:42875:1,2015-10-07T14:28:00Z,28.1540,-89.8360,57.1,67.0,97.6,-7.8,'1111122,1111122,1111122' 
ADCP,ioos:station:wmo:42875:1,2015-10-07T15:28:00Z,28.1540,-89.8360,57.1,65.0,97.5,-7.1,'1111122,1111122,1111122' 
ADCP,ioos:station:wmo:42875:1,2015-10-07T16:28:00Z,28.1540,-89.8360,57.1,65.0,96.9,-11.1,'1111122,1111122,1111122' 
ADCP,ioos:station:wmo:42875:1,2015-10-07T21:28:00Z,28.1540,-89.8360,57.1,71.0,103.2,-6.5,'1111122,1111122,1111122' 
ADCP,ioos:station:wmo:42875:1,2015-10-07T22:28:00Z,28.1540,-89.8360,57.1,69.0,107.0,-7.2,'1111122,1111122,1111122' 
ADCP,ioos:station:wmo:42875:1,2015-10-08T00:28:00Z,28.1540,-89.8360,57.1,71.0,107.6,-7.4,'1111122,1111122,1111122' 
ADCP,ioos:station:wmo:42875:1,2015-10-08T01:28:00Z,28.1540,-89.8360,57.1,68.0,103.2,-7.7,'1111122,1111122,1111122' 
ADCP,ioos:station:wmo:42875:1,2015-10-08T02:28:00Z,28.1540,-89.8360,57.1,67.0,101.1,-3.0,'1111122,1111122,1111122' 
ADCP,ioos:station:wmo:42875:1,2015-10-08T03:28:00Z,28.1540,-89.8360,57.1,68.0,100.7,-3.3,'1111122,1111122,1111122' 
ADCP,ioos:station:wmo:42875:1,2015-10-08T04:28:00Z,28.1540,-89.8360,57.1,71.0,101.3,-3.0,'1111122,1111122,1111122' 
ADCP,ioos:station:wmo:42875:1,2015-10-08T05:28:00Z,28.1540,-89.8360,57.1,71.0,104.7,-4.9,'1111122,1111122,1111122' 
ADCP,ioos:station:wmo:42875:1,2015-10-08T06:28:00Z,28.1540,-89.8360,57.1,69.0,91.0,-1.8,'1111122,1111122,1111122' 
ADCP,ioos:station:wmo:42875:1,2015-10-08T07:28:00Z,28.1540,-89.8360,57.1,70.0,110.8,-4.6,'1111122,1111122,1111122' 
ADCP,ioos:station:wmo:42875:1,2015-10-08T07:48:00Z,28.1540,-89.8360,57.1,70.0,104.9,-4.3,'1111122,1111122,1111122' 
ADCP,ioos:station:wmo:42875:1,2015-10-08T10:28:00Z,28.1540,-89.8360,57.1,69.0,115.6,-3.5,'1111122,1111122,1111122' 
ADCP,ioos:station:wmo:42875:1,2015-10-08T11:28:00Z,28.1540,-89.8360,57.1,68.0,119.1,-3.7,'1111122,1111122,1111122' 
ADCP,ioos:station:wmo:42875:1,2015-10-08T12:28:00Z,28.1540,-89.8360,57.1,69.0,109.5,-3.5,'1111122,1111122,1111122' 
ADCP,ioos:station:wmo:42875:1,2015-10-08T13:28:00Z,28.1540,-89.8360,57.1,68.0,108.9,-5.8,'1111122,1111122,1111122' 
ADCP,ioos:station:wmo:42875:1,2015-10-08T14:28:00Z,28.1540,-89.8360,57.1,71.0,104.1,-5.4,'1111122,1111122,1111122' 
ADCP,ioos:station:wmo:42875:1,2015-10-08T15:28:00Z,28.1540,-89.8360,57.1,71.0,114.0,-6.6,'1111122,1111122,1111122' 
ADCP,ioos:station:wmo:42875:1,2015-10-08T16:28:00Z,28.1540,-89.8360,57.1,71.0,109.9,-6.0,'1111122,1111122,1111122' 
ADCP,ioos:station:wmo:42875:1,2015-10-08T17:28:00Z,28.1540,-89.8360,57.1,70.0,113.0,-6.8,'1111122,1111122,1111122' 
ADCP,ioos:station:wmo:42875:1,2015-10-08T18:28:00Z,28.1540,-89.8360,57.1,70.0,110.3,-6.4,'1111122,1111122,1111122' 
ADCP,ioos:station:wmo:42875:1,2015-10-08T19:28:00Z,28.1540,-89.8360,57.1,71.0,108.0,-4.9,'1111122,1111122,1111122' 
ADCP,ioos:station:wmo:42875:1,2015-10-08T20:28:00Z,28.1540,-89.8360,57.1,73.0,120.0,-3.4,'1111122,1111122,1111122' 
ADCP,ioos:station:wmo:42875:1,2015-10-08T21:28:00Z,28.1540,-89.8360,57.1,72.0,122.4,-5.8,'1111122,1111122,1111122' 
ADCP,ioos:station:wmo:42875:1,2015-10-08T22:28:00Z,28.1540,-89.8360,57.1,74.0,117.5,-4.5,'1111122,1111122,1111122' 
ADCP,ioos:station:wmo:42875:1,2015-10-08T23:28:00Z,28.1540,-89.8360,57.1,74.0,116.8,-3.7,'1111122,1111122,1111122' 
ADCP,ioos:station:wmo:42875:1,2015-10-09T00:28:00Z,28.1540,-89.8360,57.1,72.0,109.7,-4.5,'1111122,1111122,1111122' 
ADCP,ioos:station:wmo:42875:1,2015-10-09T01:28:00Z,28.1540,-89.8360,57.1,73.0,106.3,-7.1,'1111122,1111122,1111122' 
ADCP,ioos:station:wmo:42875:1,2015-10-09T02:28:00Z,28.1540,-89.8360,57.1,73.0,101.9,-5.2,'1111122,1111122,1111122' 
ADCP,ioos:station:wmo:42875:1,2015-10-09T03:28:00Z,28.1540,-89.8360,57.1,73.0,107.3,-4.3,'1111122,1111122,1111122' 
ADCP,ioos:station:wmo:42875:1,2015-10-09T04:28:00Z,28.1540,-89.8360,57.1,72.0,109.4,-2.9,'1111122,1111122,1111122' 
ADCP,ioos:station:wmo:42875:1,2015-10-09T05:28:00Z,28.1540,-89.8360,57.1,75.0,114.4,-5.2,'1111122,1111122,1111122' 
ADCP,ioos:station:wmo:42875:1,2015-10-09T06:28:00Z,28.1540,-89.8360,57.1,75.0,116.9,-3.5,'1111122,1111122,1111122' 
ADCP,ioos:station:wmo:42875:1,2015-10-09T07:48:00Z,28.1540,-89.8360,57.1,75.0,113.0,-3.6,'1111122,1111122,1111122' 
ADCP,ioos:station:wmo:42875:1,2015-10-09T10:28:00Z,28.1540,-89.8360,57.1,76.0,115.9,-5.2,'1111122,1111122,1111122' 
ADCP,ioos:station:wmo:42875:1,2015-10-09T11:28:00Z,28.1540,-89.8360,57.1,74.0,108.8,-2.5,'1111122,1111122,1111122' 
ADCP,ioos:station:wmo:42875:1,2015-10-09T12:28:00Z,28.1540,-89.8360,57.1,68.0,103.9,-3.2,'1111122,1111122,1111122' 
ADCP,ioos:station:wmo:42875:1,2015-10-09T13:28:00Z,28.1540,-89.8360,57.1,70.0,92.6,-5.2,'1111122,1111122,1111122' 
ADCP,ioos:station:wmo:42875:1,2015-10-09T14:28:00Z,28.1540,-89.8360,57.1,76.0,102.8,-4.6,'1111122,1111122,1111122' 
ADCP,ioos:station:wmo:42875:1,2015-10-09T15:28:00Z,28.1540,-89.8360,57.1,77.0,108.2,-5.8,'1111122,1111122,1111122' 
ADCP,ioos:station:wmo:42875:1,2015-10-09T16:28:00Z,28.1540,-89.8360,57.1,79.0,108.5,-6.7,'1111122,1111122,1111122' 
ADCP,ioos:station:wmo:42875:1,2015-10-09T17:28:00Z,28.1540,-89.8360,57.1,75.0,108.4,-5.8,'1111122,1111122,1111122' 
ADCP,ioos:station:wmo:42875:1,2015-10-09T18:28:00Z,28.1540,-89.8360,57.1,73.0,103.3,-6.5,'1111122,1111122,1111122' 
ADCP,ioos:station:wmo:42875:1,2015-10-09T19:28:00Z,28.1540,-89.8360,57.1,73.0,115.3,-7.0,'1111122,1111122,1111122' 
ADCP,ioos:station:wmo:42875:1,2015-10-09T20:28:00Z,28.1540,-89.8360,57.1,72.0,114.9,-5.4,'1111122,1111122,1111122' 
ADCP,ioos:station:wmo:42875:1,2015-10-09T21:28:00Z,28.1540,-89.8360,57.1,73.0,116.4,-4.6,'1111122,1111122,1111122' 
ADCP,ioos:station:wmo:42875:1,2015-10-09T22:28:00Z,28.1540,-89.8360,57.1,73.0,118.3,-3.9,'1111122,1111122,1111122' 
ADCP,ioos:station:wmo:42875:1,2015-10-09T23:28:00Z,28.1540,-89.8360,57.1,74.0,121.1,-3.0,'1111122,1111122,1111122' 
ADCP,ioos:station:wmo:42875:1,2015-10-10T00:28:00Z,28.1540,-89.8360,57.1,75.0,113.7,-7.1,'1111122,1111122,1111122' 
ADCP,ioos:station:wmo:42875:1,2015-10-10T01:28:00Z,28.1540,-89.8360,57.1,74.0,107.2,-6.8,'1111122,1111122,1111122' 
ADCP,ioos:station:wmo:42875:1,2015-10-11T03:28:00Z,28.1540,-89.8360,57.1,71.0,91.0,-4.9,'1111122,1111122,1111122' 
ADCP,ioos:station:wmo:42875:1,2015-10-11T04:28:00Z,28.1540,-89.8360,57.1,71.0,76.9,-3.9,'1111122,1111122,1111122' 
ADCP,ioos:station:wmo:42875:1,2015-10-11T05:28:00Z,28.1540,-89.8360,57.1,73.0,68.0,-2.6,'1111122,1111122,1111122' 
ADCP,ioos:station:wmo:42875:1,2015-10-11T06:28:00Z,28.1540,-89.8360,57.1,80.0,63.4,0.3,'1111122,1111122,1111122' 
ADCP,ioos:station:wmo:42875:1,2015-10-11T07:28:00Z,28.1540,-89.8360,57.1,80.0,57.0,0.0,'1111122,1111122,1114422' 
ADCP,ioos:station:wmo:42875:1,2015-10-11T07:48:00Z,28.1540,-89.8360,57.1,82.0,54.1,0.8,'1111122,1111122,1111122' 
ADCP,ioos:station:wmo:42875:1,2015-10-11T10:28:00Z,28.1540,-89.8360,57.1,63.0,40.2,-4.8,'1111122,1111122,1111122' 
ADCP,ioos:station:wmo:42875:1,2015-10-11T11:28:00Z,28.1540,-89.8360,57.1,74.0,55.2,0.3,'1111122,1111122,1111122' 
ADCP,ioos:station:wmo:42875:1,2015-10-11T12:28:00Z,28.1540,-89.8360,57.1,72.0,61.6,1.1,'1111122,1111122,1111122' 
ADCP,ioos:station:wmo:42875:1,2015-10-11T13:28:00Z,28.1540,-89.8360,57.1,75.0,67.1,0.9,'1111122,1111122,1111122' 
ADCP,ioos:station:wmo:42875:1,2015-10-11T14:28:00Z,28.1540,-89.8360,57.1,83.0,66.1,-1.4,'1111122,1111122,1111122' 
ADCP,ioos:station:wmo:42875:1,2015-10-11T15:28:00Z,28.1540,-89.8360,57.1,89.0,66.1,-1.5,'1111122,1111122,1111122' 
ADCP,ioos:station:wmo:42875:1,2015-10-11T16:28:00Z,28.1540,-89.8360,57.1,94.0,69.2,-2.8,'1111122,1111122,1111122' 
ADCP,ioos:station:wmo:42875:1,2015-10-11T18:28:00Z,28.1540,-89.8360,57.1,102.0,50.2,-3.5,'1111122,1111122,1111122' 
ADCP,ioos:station:wmo:42875:1,2015-10-11T19:28:00Z,28.1540,-89.8360,57.1,99.0,35.6,-5.7,'1111122,1111122,1111122' 
ADCP,ioos:station:wmo:42875:1,2015-10-11T20:28:00Z,28.1540,-89.8360,57.1,92.0,40.3,-2.3,'1111122,1111122,1111122' 
ADCP,ioos:station:wmo:42875:1,2015-10-11T21:28:00Z,28.1540,-89.8360,57.1,87.0,41.2,-2.1,'1111122,1111122,1111122' 
ADCP,ioos:station:wmo:42875:1,2015-10-11T22:28:00Z,28.1540,-89.8360,57.1,96.0,42.1,-1.6,'1111122,1111122,1111122' 
ADCP,ioos:station:wmo:42875:1,2015-10-11T23:28:00Z,28.1540,-89.8360,57.1,101.0,43.9,-1.7,'1111122,1111122,1111122' 
ADCP,ioos:station:wmo:42875:1,2015-10-12T00:28:00Z,28.1540,-89.8360,57.1,104.0,38.4,-1.4,'1111122,1111122,1111122' 
ADCP,ioos:station:wmo:42875:1,2015-10-12T01:28:00Z,28.1540,-89.8360,57.1,110.0,35.0,-3.0,'1111122,1111122,1111122' 
ADCP,ioos:station:wmo:42875:1,2015-10-12T02:28:00Z,28.1540,-89.8360,57.1,111.0,34.3,-2.7,'1111122,1111122,1111122' 
ADCP,ioos:station:wmo:42875:1,2015-10-12T03:28:00Z,28.1540,-89.8360,57.1,102.0,30.7,-4.3,'1111122,1111122,1111122' 
ADCP,ioos:station:wmo:42875:1,2015-10-12T04:28:00Z,28.1540,-89.8360,57.1,102.0,28.5,-4.9,'1111122,1111122,1111122' 
ADCP,ioos:station:wmo:42875:1,2015-10-12T05:28:00Z,28.1540,-89.8360,57.1,95.0,26.7,-5.7,'1111122,1111122,1111122' 
ADCP,ioos:station:wmo:42875:1,2015-10-12T06:28:00Z,28.1540,-89.8360,57.1,88.0,30.8,-7.1,'1111122,1111122,1111122' 
ADCP,ioos:station:wmo:42875:1,2015-10-12T07:28:00Z,28.1540,-89.8360,57.1,86.0,25.9,-5.5,'1111122,1111122,1111122' 
ADCP,ioos:station:wmo:42875:1,2015-10-12T07:48:00Z,28.1540,-89.8360,57.1,91.0,24.2,-5.2,'1111122,1111122,1111122' 
ADCP,ioos:station:wmo:42875:1,2015-10-12T10:28:00Z,28.1540,-89.8360,57.1,137.0,20.2,-2.3,'1111122,1111122,1111122' 
ADCP,ioos:station:wmo:42875:1,2015-10-12T11:28:00Z,28.1540,-89.8360,57.1,135.0,13.1,-3.8,'1111122,1111122,1111122' 
ADCP,ioos:station:wmo:42875:1,2015-10-12T12:28:00Z,28.1540,-89.8360,57.1,112.0,21.9,0.1,'1111122,1111122,1111122' 
ADCP,ioos:station:wmo:42875:1,2015-10-12T13:28:00Z,28.1540,-89.8360,57.1,118.0,20.8,-2.4,'1111122,1111122,1111122' 
ADCP,ioos:station:wmo:42875:1,2015-10-12T14:28:00Z,28.1540,-89.8360,57.1,113.0,25.8,-3.9,'1111122,1111122,1111122' 
ADCP,ioos:station:wmo:42875:1,2015-10-12T15:28:00Z,28.1540,-89.8360,57.1,105.0,25.9,-3.7,'1111122,1111122,1111122' 
ADCP,ioos:station:wmo:42875:1,2015-10-12T16:28:00Z,28.1540,-89.8360,57.1,91.0,24.4,-2.5,'1111122,1111122,1111122' 
ADCP,ioos:station:wmo:42875:1,2015-10-12T17:28:00Z,28.1540,-89.8360,57.1,95.0,24.2,-3.1,'1111122,1111122,1111122' 
ADCP,ioos:station:wmo:42875:1,2015-10-12T18:28:00Z,28.1540,-89.8360,57.1,90.0,28.6,-2.9,'1111122,1111122,1111122' 
ADCP,ioos:station:wmo:42875:1,2015-10-12T19:28:00Z,28.1540,-89.8360,57.1,84.0,28.4,-3.7,'1111122,1111122,1111122' 
ADCP,ioos:station:wmo:42875:1,2015-10-12T20:28:00Z,28.1540,-89.8360,57.1,86.0,32.6,-3.1,'1111122,1111122,1111122' 
ADCP,ioos:station:wmo:42875:1,2015-10-12T21:28:00Z,28.1540,-89.8360,57.1,79.0,33.9,-2.3,'1111122,1111122,1111122' 
ADCP,ioos:station:wmo:42875:1,2015-10-12T22:28:00Z,28.1540,-89.8360,57.1,88.0,32.7,-0.9,'1111122,1111122,1111122' 
ADCP,ioos:station:wmo:42875:1,2015-10-12T23:28:00Z,28.1540,-89.8360,57.1,92.0,30.3,0.9,'1111122,1111122,1111122' 
ADCP,ioos:station:wmo:42875:1,2015-10-13T00:28:00Z,28.1540,-89.8360,57.1,96.0,25.5,2.1,'1111122,1111122,1111122' 
ADCP,ioos:station:wmo:42875:1,2015-10-13T01:28:00Z,28.1540,-89.8360,57.1,98.0,24.0,-3.9,'1111122,1111122,1111122' 
ADCP,ioos:station:wmo:42875:1,2015-10-13T03:28:00Z,28.1540,-89.8360,57.1,102.0,15.6,-2.1,'1111122,1111122,1111122' 
ADCP,ioos:station:wmo:42875:1,2015-10-13T04:28:00Z,28.1540,-89.8360,57.1,128.0,8.7,-0.9,'1111122,1111122,1111122' 
ADCP,ioos:station:wmo:42875:1,2015-10-13T06:28:00Z,28.1540,-89.8360,57.1,183.0,6.0,-2.5,'1111122,1111122,1111122' 
ADCP,ioos:station:wmo:42875:1,2015-10-13T07:28:00Z,28.1540,-89.8360,57.1,148.0,5.2,-2.8,'1111122,1111122,1111122' 
ADCP,ioos:station:wmo:42875:1,2015-10-13T07:38:00Z,28.1540,-89.8360,57.1,241.0,1.8,-4.3,'1111122,1111122,1111122' 
ADCP,ioos:station:wmo:42875:1,2015-10-13T10:28:00Z,28.1540,-89.8360,57.1,117.0,10.2,-4.2,'1111122,1111122,1111122' 
ADCP,ioos:station:wmo:42875:1,2015-10-13T11:28:00Z,28.1540,-89.8360,57.1,110.0,10.9,-1.1,'1111122,1111122,1111122' 
ADCP,ioos:station:wmo:42875:1,2015-10-13T12:28:00Z,28.1540,-89.8360,57.1,111.0,9.8,-0.9,'1111122,1111122,1111122' 
ADCP,ioos:station:wmo:42875:1,2015-10-13T13:28:00Z,28.1540,-89.8360,57.1,65.0,11.5,-3.6,'1111122,1111122,1111122' 
ADCP,ioos:station:wmo:42875:1,2015-10-13T14:28:00Z,28.1540,-89.8360,57.1,139.0,13.4,-2.0,'1111122,1111122,1111122' 
ADCP,ioos:station:wmo:42875:1,2015-10-13T15:28:00Z,28.1540,-89.8360,57.1,123.0,16.3,-4.3,'1111122,1111122,1111122' 
ADCP,ioos:station:wmo:42875:1,2015-10-13T17:28:00Z,28.1540,-89.8360,57.1,106.0,15.5,-3.2,'1111122,1111122,1111122' 
ADCP,ioos:station:wmo:42875:1,2015-10-13T18:28:00Z,28.1540,-89.8360,57.1,100.0,16.5,-3.2,'1111122,1111122,1111122' 
ADCP,ioos:station:wmo:42875:1,2015-10-13T19:28:00Z,28.1540,-89.8360,57.1,111.0,23.1,-2.5,'1111122,1111122,1111122' 
ADCP,ioos:station:wmo:42875:1,2015-10-13T20:28:00Z,28.1540,-89.8360,57.1,113.0,28.5,-2.3,'1111122,1111122,1111122' 
ADCP,ioos:station:wmo:42875:1,2015-10-13T21:28:00Z,28.1540,-89.8360,57.1,112.0,31.5,-2.6,'1111122,1111122,1111122' 
ADCP,ioos:station:wmo:42875:1,2015-10-13T23:28:00Z,28.1540,-89.8360,57.1,120.0,30.1,-4.1,'1111122,1111122,1111122' 
ADCP,ioos:station:wmo:42875:1,2015-10-14T00:28:00Z,28.1540,-89.8360,57.1,96.0,20.9,-4.0,'1111122,1111122,1111122' 
ADCP,ioos:station:wmo:42875:1,2015-10-14T01:18:00Z,28.1540,-89.8360,57.1,123.0,30.9,-8.5,'1111122,1111122,1111122' 
ADCP,ioos:station:wmo:42875:1,2015-10-14T02:28:00Z,28.1540,-89.8360,57.1,102.0,30.4,-8.3,'1111122,1111122,1111122' 
ADCP,ioos:station:wmo:42875:1,2015-10-14T03:28:00Z,28.1540,-89.8360,57.1,100.0,31.2,-6.8,'1111122,1111122,1111122' 
ADCP,ioos:station:wmo:42875:1,2015-10-14T04:28:00Z,28.1540,-89.8360,57.1,106.0,25.9,-5.4,'1111122,1111122,1111122' 
ADCP,ioos:station:wmo:42875:1,2015-10-14T05:28:00Z,28.1540,-89.8360,57.1,92.0,26.9,-8.4,'1111122,1111122,1111122' 
ADCP,ioos:station:wmo:42875:1,2015-10-14T06:28:00Z,28.1540,-89.8360,57.1,94.0,27.0,-6.9,'1111122,1111122,1111122' 
ADCP,ioos:station:wmo:42875:1,2015-10-14T07:28:00Z,28.1540,-89.8360,57.1,77.0,20.6,-7.2,'1111122,1111122,1111122' 
ADCP,ioos:station:wmo:42875:1,2015-10-14T07:48:00Z,28.1540,-89.8360,57.1,84.0,21.3,-3.2,'1111122,1111122,1111122' 
ADCP,ioos:station:wmo:42875:1,2015-10-14T10:28:00Z,28.1540,-89.8360,57.1,74.0,16.8,-3.4,'1111122,1111122,1111122' 
ADCP,ioos:station:wmo:42875:1,2015-10-14T11:28:00Z,28.1540,-89.8360,57.1,90.0,12.8,-2.8,'1111122,1111122,1111122' 
ADCP,ioos:station:wmo:42875:1,2015-10-14T12:18:00Z,28.1540,-89.8360,57.1,90.0,0.9,-2.4,'1111122,1111122,1111122' 
ADCP,ioos:station:wmo:42875:1,2015-10-14T13:28:00Z,28.1540,-89.8360,57.1,118.0,19.4,-4.5,'1111122,1111122,1111122' 
ADCP,ioos:station:wmo:42875:1,2015-10-14T14:28:00Z,28.1540,-89.8360,57.1,113.0,15.1,-3.6,'1111122,1111122,1111122' 
ADCP,ioos:station:wmo:42875:1,2015-10-14T15:28:00Z,28.1540,-89.8360,57.1,130.0,18.4,-6.4,'1111122,1111122,1111122' 
ADCP,ioos:station:wmo:42875:1,2015-10-14T16:18:00Z,28.1540,-89.8360,57.1,132.0,23.0,-4.5,'1111122,1111122,1111122' 
ADCP,ioos:station:wmo:42875:1,2015-10-14T17:31:00Z,28.1540,-89.8360,57.1,116.0,28.1,-3.5,'1111122,1111122,1111122' 
ADCP,ioos:station:wmo:42875:1,2015-10-14T18:31:00Z,28.1540,-89.8360,57.1,112.0,28.8,-4.2,'1111122,1111122,1111122' 
ADCP,ioos:station:wmo:42875:1,2015-10-14T19:31:00Z,28.1540,-89.8360,57.1,109.0,32.3,-2.4,'1111122,1111122,1111122' 
ADCP,ioos:station:wmo:42875:1,2015-10-14T20:31:00Z,28.1540,-89.8360,57.1,95.0,30.4,-3.6,'1111122,1111122,1111122' 
ADCP,ioos:station:wmo:42875:1,2015-10-14T21:21:00Z,28.1540,-89.8360,57.1,82.0,35.0,-5.3,'1111122,1111122,1111122' 
ADCP,ioos:station:wmo:42875:1,2015-10-14T22:31:00Z,28.1540,-89.8360,57.1,84.0,42.1,-1.8,'1111122,1111122,1111122' 
ADCP,ioos:station:wmo:42875:1,2015-10-14T23:31:00Z,28.1540,-89.8360,57.1,97.0,37.4,-0.8,'1111122,1111122,1111122' 
ADCP,ioos:station:wmo:42875:1,2015-10-15T00:21:00Z,28.1540,-89.8360,57.1,99.0,31.3,-6.6,'1111122,1111122,1111122' 
ADCP,ioos:station:wmo:42875:1,2015-10-15T01:21:00Z,28.1540,-89.8360,57.1,88.0,30.6,-7.8,'1111122,1111122,1111122' 
ADCP,ioos:station:wmo:42875:1,2015-10-15T02:31:00Z,28.1540,-89.8360,57.1,99.0,30.9,-5.9,'1111122,1111122,1111122' 
ADCP,ioos:station:wmo:42875:1,2015-10-15T03:31:00Z,28.1540,-89.8360,57.1,109.0,31.2,-5.3,'1111122,1111122,1111122' 
ADCP,ioos:station:wmo:42875:1,2015-10-15T05:31:00Z,28.1540,-89.8360,57.1,105.0,31.0,-7.3,'1111122,1111122,1111122' 
ADCP,ioos:station:wmo:42875:1,2015-10-15T06:31:00Z,28.1540,-89.8360,57.1,101.0,28.1,-8.5,'1111122,1111122,1111122' 
ADCP,ioos:station:wmo:42875:1,2015-10-15T06:51:00Z,28.1540,-89.8360,57.1,105.0,25.7,-8.6,'1111122,1111122,1111122' 
ADCP,ioos:station:wmo:42875:1,2015-10-15T09:31:00Z,28.1540,-89.8360,57.1,107.0,22.7,-7.0,'1111122,1111122,1111122' 
ADCP,ioos:station:wmo:42875:1,2015-10-15T10:31:00Z,28.1540,-89.8360,57.1,95.0,25.5,-7.1,'1111122,1111122,1111122' 
ADCP,ioos:station:wmo:42875:1,2015-10-15T11:31:00Z,28.1540,-89.8360,57.1,98.0,39.5,-3.7,'1111122,1111122,1111122' 
ADCP,ioos:station:wmo:42875:1,2015-10-15T12:31:00Z,28.1540,-89.8360,57.1,100.0,29.2,-4.9,'1111122,1111122,1111122' 
ADCP,ioos:station:wmo:42875:1,2015-10-15T14:21:00Z,28.1540,-89.8360,57.1,95.0,44.5,-3.3,'1111122,1111122,1111122' 
ADCP,ioos:station:wmo:42875:1,2015-10-15T15:31:00Z,28.1540,-89.8360,57.1,92.0,48.0,-3.7,'1111122,1111122,1111122' 
ADCP,ioos:station:wmo:42875:1,2015-10-15T16:31:00Z,28.1540,-89.8360,57.1,96.0,53.3,-3.6,'1111122,1111122,1111122' 
ADCP,ioos:station:wmo:42875:1,2015-10-15T17:31:00Z,28.1540,-89.8360,57.1,90.0,61.1,-2.3,'1111122,1111122,1111122' 
ADCP,ioos:station:wmo:42875:1,2015-10-15T18:21:00Z,28.1540,-89.8360,57.1,91.0,62.8,-2.9,'1111122,1111122,1111122' 
ADCP,ioos:station:wmo:42875:1,2015-10-15T19:31:00Z,28.1540,-89.8360,57.1,93.0,66.2,-2.6,'1111122,1111122,1111122' 
ADCP,ioos:station:wmo:42875:1,2015-10-15T20:31:00Z,28.1540,-89.8360,57.1,91.0,67.7,-2.2,'1111122,1111122,1111122' 
ADCP,ioos:station:wmo:42875:1,2015-10-15T21:21:00Z,28.1540,-89.8360,57.1,89.0,58.5,-3.9,'1111122,1111122,1111122' 
ADCP,ioos:station:wmo:42875:1,2015-10-15T22:31:00Z,28.1540,-89.8360,57.1,89.0,55.7,-3.2,'1111122,1111122,1111122' 
ADCP,ioos:station:wmo:42875:1,2015-10-15T23:31:00Z,28.1540,-89.8360,57.1,90.0,39.9,-0.7,'1111122,1111122,1111122' 
ADCP,ioos:station:wmo:42875:1,2015-10-16T00:21:00Z,28.1540,-89.8360,57.1,88.0,52.6,-4.0,'1111122,1111122,1111122' 
ADCP,ioos:station:wmo:42875:1,2015-10-16T01:31:00Z,28.1540,-89.8360,57.1,90.0,49.0,-5.4,'1111122,1111122,1111122' 
ADCP,ioos:station:wmo:42875:1,2015-10-16T02:31:00Z,28.1540,-89.8360,57.1,82.0,48.2,-2.8,'1111122,1111122,1111122' 
ADCP,ioos:station:wmo:42875:1,2015-10-16T03:31:00Z,28.1540,-89.8360,57.1,82.0,47.4,-1.0,'1111122,1111122,1111122' 
ADCP,ioos:station:wmo:42875:1,2015-10-16T04:31:00Z,28.1540,-89.8360,57.1,76.0,47.1,0.0,'1111122,1111122,1114422' 
ADCP,ioos:station:wmo:42875:1,2015-10-16T05:31:00Z,28.1540,-89.8360,57.1,82.0,50.6,-3.8,'1111122,1111122,1111122' 